CZ-2D DEB, 44611

Orbit data source: Space-Track

CZ-2D DEB, 44611 is space debris in SSO originally from a launch on Mon, 09 Oct 2017 UTC launched from the Jiuquan Satellite Launch Center, China (JSC). Debris objects in space refer to the collection of defunct objects orbiting the Earth. Examples of debris include non-operational satellites, rocket bodies, and fragments generated from explosions, collisions, or faulty payload assembly.

Loading next visibility...
Identifier
44611, 2017-060D
Orbit
SSO
Country
Flag of CNCN / PRC
Related business
Manufacturer
Unknown
Mission
Spacecraft
Bus & Motor
Unknown
Mass
Unknown
Launch date (UTC)
2017-10-09 (8 years ago)
Launch vehicle
Unknown
Launch site
Jiuquan Satellite Launch Center, China (JSC)
Object type
Payload
Rocket body
Debris
Shape & HBR
Unknown shape, 0.1 m
Radar Cross Section
Small (<0.1 m²)

Expand to show TLE details & history
Last TLE update: 7 hours ago

TLE from 7 hours ago
0 CZ-2D DEB
1 44611U 17060D   25298.34259856  .00010105  00000-0  97805-3 0  9997
2 44611  98.2014  79.4459 0029857 167.8850 192.3092 14.92625237432079
Epoch: 2025-10-25T08:13Z
TLE epoch observation values (Epoch: 2025-10-25T08:13:20.515Z)
Latitude
-0.00009°
Longitude
-77.86409°
Altitude
613.116 km
Speed
7.542 km/s
True Right ascension
05h 17m 47s
True Declination
0° 00' 00"
Sunlit
Object was in full shadow at epoch
Visualization orbit readout
Latitude
Unknown
Longitude
Unknown
Altitude
Unknown
Speed
Unknown
Apparent Right ascension
Unknown
Apparent Declination
Unknown
Sunlit
N/A
Visualization observer readout
Local Sidereal Time
10:28:32
Azimuth
Unknown
Elevation
Unknown
Doppler factor
Unknown
Orbital elements
Apogee altitude
607.587 km
Perigee altitude
565.996 km
Semi-major axis
6,964.928 km
Eccentricity
0.00299
Inclination
98.2014°
RAAN
79.4459°
Arg. of periapsis
167.885°
True anomaly
192.23653°
Mean anomaly
192.3092°
Eccentric anomaly
192.27284°
Mean motion
3.73395 °/min
Orbital period
96.41 mins
BSTAR
0.00097805
Loading maneuver chart data...
Computing Atmospheric mass density...
Loading historical data...
Loading historical data...
Loading historical data...
Loading historical data...
Loading historical data...
Loading historical data...
Loading historical data...
Other satellites on launch #60 in the year 2017 (2017-10-09 UTC)

Documentation

Showing up to 5 results
|